Time,TemperatureF,DewpointF,PressureIn,WindDirection,WindDirectionDegrees,WindSpeedMPH,WindSpeedGustMPH,Humidity,HourlyPrecipIn,Conditions,Clouds,dailyrainin,SoftwareType,DateUTC
2013-02-04 00:00:00,38.6,29.3,30.11,West,277,2.0,5.0,69,0.00,,---,0.00,VWS V14.01,2013-02-04 05:00:00,
2013-02-04 00:01:00,38.6,29.3,30.11,West,277,0.0,5.0,69,0.00,,---,0.00,VWS V14.01,2013-02-04 05:01:00,
2013-02-04 00:02:00,38.6,29.3,30.11,West,277,4.0,5.0,69,0.00,,---,0.00,VWS V14.01,2013-02-04 05:02:00,
2013-02-04 00:07:00,38.7,29.4,30.11,West,276,0.0,2.0,69,0.00,,---,0.00,VWS V14.01,2013-02-04 05:07:00,
2013-02-04 00:30:00,33.1,27.9,30.10,West,278,0.0,2.0,81,0.00,,---,0.00,VWS V14.01,2013-02-04 05:30:00,
2013-02-04 00:40:00,38.0,28.8,30.11,West,277,0.0,5.0,69,0.00,,---,0.00,VWS V14.01,2013-02-04 05:40:00,
2013-02-04 00:45:00,37.8,28.9,30.11,West,278,0.0,5.0,70,0.00,,---,0.00,VWS V14.01,2013-02-04 05:45:00,
2013-02-04 00:50:00,37.6,29.1,30.11,West,277,0.0,5.0,71,0.00,,---,0.00,VWS V14.01,2013-02-04 05:50:00,
2013-02-04 00:55:00,37.1,28.9,30.11,West,277,0.0,5.0,72,0.00,,---,0.00,VWS V14.01,2013-02-04 05:55:00,
2013-02-04 01:00:00,36.3,28.8,30.11,West,278,1.0,5.0,74,0.00,,---,0.00,VWS V14.01,2013-02-04 06:00:00,
2013-02-04 01:05:00,35.7,28.6,30.10,West,277,1.0,2.0,75,0.00,,---,0.00,VWS V14.01,2013-02-04 06:05:00,
2013-02-04 01:10:00,35.0,28.5,30.10,West,278,0.0,2.0,77,0.00,,---,0.00,VWS V14.01,2013-02-04 06:10:00,
2013-02-04 01:15:00,34.6,28.1,30.10,West,277,0.0,2.0,77,0.00,,---,0.00,VWS V14.01,2013-02-04 06:15:00,
2013-02-04 01:20:00,34.2,28.4,30.10,West,277,0.0,2.0,79,0.00,,---,0.00,VWS V14.01,2013-02-04 06:20:00,
2013-02-04 01:25:00,33.8,27.7,30.10,West,277,0.0,2.0,78,0.00,,---,0.00,VWS V14.01,2013-02-04 06:25:00,
2013-02-04 01:30:00,33.4,27.9,30.10,West,277,0.0,2.0,80,0.00,,---,0.00,VWS V14.01,2013-02-04 06:30:00,
2013-02-04 01:35:00,33.1,27.9,30.10,West,278,0.0,0.0,81,0.00,,---,0.00,VWS V14.01,2013-02-04 06:35:00,
2013-02-04 01:40:00,32.8,27.6,30.10,West,277,0.0,1.0,81,0.00,,---,0.00,VWS V14.01,2013-02-04 06:40:00,
2013-02-04 01:45:00,32.4,27.5,30.10,West,278,0.0,1.0,82,0.00,,---,0.00,VWS V14.01,2013-02-04 06:45:00,
2013-02-04 01:47:00,32.0,27.1,30.10,West,278,0.0,1.0,82,0.00,,---,0.00,VWS V14.01,2013-02-04 06:47:00,
2013-02-04 01:50:00,32.1,27.5,30.10,West,278,0.0,1.0,83,0.00,,---,0.00,VWS V14.01,2013-02-04 06:50:00,
2013-02-04 02:00:00,30.2,26.8,30.09,West,277,0.0,1.0,87,0.00,,---,0.00,VWS V14.01,2013-02-04 07:00:00,
2013-02-04 02:30:00,29.8,26.4,30.08,West,278,0.0,3.0,87,0.00,,---,0.00,VWS V14.01,2013-02-04 07:30:00,
2013-02-04 02:43:00,31.9,27.0,30.10,West,277,0.0,1.0,82,0.00,,---,0.00,VWS V14.01,2013-02-04 07:43:00,
2013-02-04 02:48:00,30.6,27.5,30.10,West,277,0.0,1.0,88,0.00,,---,0.00,VWS V14.01,2013-02-04 07:48:00,
2013-02-04 02:53:00,30.5,27.1,30.09,West,277,1.0,1.0,87,0.00,,---,0.00,VWS V14.01,2013-02-04 07:53:00,
2013-02-04 02:58:00,30.3,26.9,30.09,West,278,0.0,1.0,87,0.00,,---,0.00,VWS V14.01,2013-02-04 07:58:00,
2013-02-04 03:03:00,30.2,27.1,30.09,West,278,0.0,1.0,88,0.00,,---,0.00,VWS V14.01,2013-02-04 08:03:00,
2013-02-04 03:08:00,30.1,26.7,30.09,West,278,1.0,2.0,87,0.00,,---,0.00,VWS V14.01,2013-02-04 08:08:00,
2013-02-04 03:13:00,29.9,26.5,30.09,West,278,1.0,3.0,87,0.00,,---,0.00,VWS V14.01,2013-02-04 08:13:00,
2013-02-04 03:18:00,29.8,26.4,30.09,West,278,0.0,3.0,87,0.00,,---,0.00,VWS V14.01,2013-02-04 08:18:00,
2013-02-04 03:23:00,29.8,26.7,30.09,West,277,0.0,3.0,88,0.00,,---,0.00,VWS V14.01,2013-02-04 08:23:00,
2013-02-04 03:28:00,29.9,26.5,30.08,West,277,1.0,3.0,87,0.00,,---,0.00,VWS V14.01,2013-02-04 08:28:00,
2013-02-04 03:30:00,28.6,25.5,30.08,West,278,0.0,3.0,88,0.00,,---,0.00,VWS V14.01,2013-02-04 08:30:00,
2013-02-04 03:33:00,29.8,26.4,30.08,West,278,0.0,3.0,87,0.00,,---,0.00,VWS V14.01,2013-02-04 08:33:00,
2013-02-04 03:38:00,29.6,26.2,30.08,West,278,1.0,1.0,87,0.00,,---,0.00,VWS V14.01,2013-02-04 08:38:00,
2013-02-04 03:43:00,29.4,26.0,30.08,West,278,0.0,1.0,87,0.00,,---,0.00,VWS V14.01,2013-02-04 08:43:00,
2013-02-04 03:48:00,29.4,26.3,30.08,West,277,0.0,1.0,88,0.00,,---,0.00,VWS V14.01,2013-02-04 08:48:00,
2013-02-04 03:53:00,29.7,26.9,30.09,West,278,1.0,1.0,89,0.00,,---,0.00,VWS V14.01,2013-02-04 08:53:00,
2013-02-04 04:00:00,28.0,25.2,30.07,West,278,0.0,1.0,89,0.00,,---,0.00,VWS V14.01,2013-02-04 09:00:00,
2013-02-04 04:17:00,29.7,26.9,30.08,West,278,3.0,3.0,89,0.00,,---,0.00,VWS V14.01,2013-02-04 09:17:00,
2013-02-04 04:22:00,29.1,26.0,30.08,West,278,0.0,3.0,88,0.00,,---,0.00,VWS V14.01,2013-02-04 09:22:00,
2013-02-04 04:27:00,28.9,25.8,30.08,West,278,0.0,3.0,88,0.00,,---,0.00,VWS V14.01,2013-02-04 09:27:00,
2013-02-04 04:30:00,27.9,25.4,30.09,West,278,1.0,2.0,90,0.00,,---,0.00,VWS V14.01,2013-02-04 09:30:00,
2013-02-04 04:32:00,28.7,25.6,30.08,West,278,0.0,3.0,88,0.00,,---,0.00,VWS V14.01,2013-02-04 09:32:00,
2013-02-04 04:37:00,28.5,25.4,30.08,West,278,0.0,0.0,88,0.00,,---,0.00,VWS V14.01,2013-02-04 09:37:00,
2013-02-04 04:42:00,28.4,25.6,30.08,West,278,0.0,0.0,89,0.00,,---,0.00,VWS V14.01,2013-02-04 09:42:00,
2013-02-04 04:47:00,28.2,25.4,30.08,West,278,0.0,0.0,89,0.00,,---,0.00,VWS V14.01,2013-02-04 09:47:00,
2013-02-04 04:52:00,28.2,25.4,30.08,West,277,0.0,1.0,89,0.00,,---,0.00,VWS V14.01,2013-02-04 09:52:00,
2013-02-04 04:57:00,28.2,25.4,30.08,West,278,0.0,1.0,89,0.00,,---,0.00,VWS V14.01,2013-02-04 09:57:00,
2013-02-04 05:00:00,28.0,25.7,30.10,West,278,0.0,2.0,91,0.00,,---,0.00,VWS V14.01,2013-02-04 10:00:00,
2013-02-04 05:02:00,28.0,25.2,30.08,West,278,0.0,1.0,89,0.00,,---,0.00,VWS V14.01,2013-02-04 10:02:00,
2013-02-04 05:07:00,27.9,25.1,30.07,West,278,0.0,0.0,89,0.00,,---,0.00,VWS V14.01,2013-02-04 10:07:00,
2013-02-04 05:12:00,27.8,25.0,30.08,West,277,0.0,0.0,89,0.00,,---,0.00,VWS V14.01,2013-02-04 10:12:00,
2013-02-04 05:17:00,27.7,24.9,30.08,West,277,0.0,0.0,89,0.00,,---,0.00,VWS V14.01,2013-02-04 10:17:00,
2013-02-04 05:22:00,27.9,25.4,30.08,West,277,0.0,1.0,90,0.00,,---,0.00,VWS V14.01,2013-02-04 10:22:00,
2013-02-04 05:27:00,28.0,25.5,30.07,West,278,0.0,1.0,90,0.00,,---,0.00,VWS V14.01,2013-02-04 10:27:00,
2013-02-04 05:30:00,28.1,25.8,30.10,West,277,0.0,0.0,91,0.00,,---,0.00,VWS V14.01,2013-02-04 10:30:00,
2013-02-04 05:32:00,27.9,25.4,30.09,West,277,0.0,1.0,90,0.00,,---,0.00,VWS V14.01,2013-02-04 10:32:00,
2013-02-04 05:37:00,27.9,25.4,30.09,West,277,0.0,2.0,90,0.00,,---,0.00,VWS V14.01,2013-02-04 10:37:00,
2013-02-04 05:42:00,27.9,25.4,30.10,West,278,0.0,2.0,90,0.00,,---,0.00,VWS V14.01,2013-02-04 10:42:00,
2013-02-04 05:47:00,27.7,25.2,30.10,West,278,0.0,2.0,90,0.00,,---,0.00,VWS V14.01,2013-02-04 10:47:00,
2013-02-04 05:52:00,27.6,25.1,30.10,West,277,0.0,2.0,90,0.00,,---,0.00,VWS V14.01,2013-02-04 10:52:00,
2013-02-04 05:57:00,27.4,24.9,30.10,West,277,0.0,2.0,90,0.00,,---,0.00,VWS V14.01,2013-02-04 10:57:00,
2013-02-04 06:00:00,28.4,26.1,30.11,West,278,0.0,0.0,91,0.00,,---,0.00,VWS V14.01,2013-02-04 11:00:00,
2013-02-04 06:02:00,27.8,25.2,30.10,West,278,0.0,2.0,90,0.00,,---,0.00,VWS V14.01,2013-02-04 11:02:00,
2013-02-04 06:07:00,28.1,25.5,30.10,West,278,0.0,0.0,90,0.00,,---,0.00,VWS V14.01,2013-02-04 11:07:00,
2013-02-04 06:12:00,28.1,25.8,30.11,West,278,0.0,0.0,91,0.00,,---,0.00,VWS V14.01,2013-02-04 11:12:00,
2013-02-04 06:17:00,28.0,25.5,30.11,West,277,0.0,0.0,90,0.00,,---,0.00,VWS V14.01,2013-02-04 11:17:00,
2013-02-04 06:30:00,29.4,27.1,30.12,West,278,0.0,0.0,91,0.00,,---,0.00,VWS V14.01,2013-02-04 11:30:00,
2013-02-04 06:31:00,27.9,25.4,30.11,West,278,0.0,0.0,90,0.00,,---,0.00,VWS V14.01,2013-02-04 11:31:00,
2013-02-04 06:36:00,28.2,25.9,30.10,West,278,0.0,0.0,91,0.00,,---,0.00,VWS V14.01,2013-02-04 11:36:00,
2013-02-04 06:41:00,28.2,25.9,30.10,West,277,0.0,0.0,91,0.00,,---,0.00,VWS V14.01,2013-02-04 11:41:00,
2013-02-04 06:46:00,28.2,25.9,30.11,West,278,0.0,0.0,91,0.00,,---,0.00,VWS V14.01,2013-02-04 11:46:00,
2013-02-04 06:51:00,28.3,26.0,30.11,West,278,0.0,0.0,91,0.00,,---,0.00,VWS V14.01,2013-02-04 11:51:00,
2013-02-04 06:56:00,28.4,26.1,30.11,West,277,0.0,0.0,91,0.00,,---,0.00,VWS V14.01,2013-02-04 11:56:00,
2013-02-04 07:01:00,28.4,26.1,30.11,West,277,0.0,0.0,91,0.00,,---,0.00,VWS V14.01,2013-02-04 12:01:00,
2013-02-04 07:06:00,28.5,26.2,30.11,West,277,0.0,0.0,91,0.00,,---,0.00,VWS V14.01,2013-02-04 12:06:00,
2013-02-04 07:11:00,28.8,26.5,30.11,West,278,0.0,0.0,91,0.00,,---,0.00,VWS V14.01,2013-02-04 12:11:00,
2013-02-04 07:16:00,28.9,26.6,30.10,West,278,0.0,0.0,91,0.00,,---,0.00,VWS V14.01,2013-02-04 12:16:00,
2013-02-04 07:21:00,29.1,26.8,30.11,West,277,0.0,0.0,91,0.00,,---,0.00,VWS V14.01,2013-02-04 12:21:00,
2013-02-04 07:26:00,29.2,26.9,30.12,West,277,0.0,0.0,91,0.00,,---,0.00,VWS V14.01,2013-02-04 12:26:00,
2013-02-04 07:31:00,29.3,26.7,30.13,West,277,0.0,0.0,90,0.00,,---,0.00,VWS V14.01,2013-02-04 12:31:00,
2013-02-04 07:36:00,29.4,26.8,30.12,West,277,0.0,0.0,90,0.00,,---,0.00,VWS V14.01,2013-02-04 12:36:00,
2013-02-04 08:00:00,32.3,28.3,30.15,West,277,2.0,5.0,85,0.00,,---,0.00,VWS V14.01,2013-02-04 13:00:00,
2013-02-04 08:30:00,33.4,29.1,30.16,West,278,2.0,5.0,84,0.00,,---,0.00,VWS V14.01,2013-02-04 13:30:00,
2013-02-04 08:47:00,31.9,28.2,30.16,West,277,3.0,3.0,86,0.00,,---,0.00,VWS V14.01,2013-02-04 13:47:00,
2013-02-04 08:52:00,31.9,27.9,30.17,West,278,4.0,4.0,85,0.00,,---,0.00,VWS V14.01,2013-02-04 13:52:00,
2013-02-04 08:57:00,32.1,28.1,30.17,West,277,0.0,5.0,85,0.00,,---,0.00,VWS V14.01,2013-02-04 13:57:00,
2013-02-04 09:00:00,35.3,30.4,30.15,West,278,2.0,5.0,82,0.00,,---,0.00,VWS V14.01,2013-02-04 14:00:00,
2013-02-04 09:02:00,32.2,28.2,30.16,West,277,1.0,5.0,85,0.00,,---,0.00,VWS V14.01,2013-02-04 14:02:00,
2013-02-04 09:07:00,32.2,28.2,30.15,West,278,0.0,2.0,85,0.00,,---,0.00,VWS V14.01,2013-02-04 14:07:00,
2013-02-04 09:12:00,32.4,28.4,30.15,West,277,0.0,2.0,85,0.00,,---,0.00,VWS V14.01,2013-02-04 14:12:00,
2013-02-04 09:17:00,32.7,28.7,30.15,West,277,0.0,2.0,85,0.00,,---,0.00,VWS V14.01,2013-02-04 14:17:00,
2013-02-04 09:22:00,33.0,29.0,30.16,West,277,3.0,4.0,85,0.00,,---,0.00,VWS V14.01,2013-02-04 14:22:00,
2013-02-04 09:27:00,33.1,28.5,30.17,West,277,1.0,5.0,83,0.00,,---,0.00,VWS V14.01,2013-02-04 14:27:00,
2013-02-04 09:30:00,38.5,30.3,30.15,West,277,0.0,4.0,72,0.00,,---,0.00,VWS V14.01,2013-02-04 14:30:00,
2013-02-04 09:32:00,33.4,29.1,30.16,West,278,1.0,5.0,84,0.00,,---,0.00,VWS V14.01,2013-02-04 14:32:00,
2013-02-04 09:37:00,33.6,29.3,30.16,West,278,0.0,2.0,84,0.00,,---,0.00,VWS V14.01,2013-02-04 14:37:00,
2013-02-04 09:42:00,33.9,29.6,30.16,West,277,3.0,3.0,84,0.00,,---,0.00,VWS V14.01,2013-02-04 14:42:00,
2013-02-04 09:47:00,34.1,29.8,30.16,West,278,2.0,4.0,84,0.00,,---,0.00,VWS V14.01,2013-02-04 14:47:00,
2013-02-04 09:52:00,34.4,30.1,30.15,West,278,1.0,5.0,84,0.00,,---,0.00,VWS V14.01,2013-02-04 14:52:00,
2013-02-04 09:57:00,34.7,30.1,30.16,West,277,0.0,5.0,83,0.00,,---,0.00,VWS V14.01,2013-02-04 14:57:00,
2013-02-04 10:00:00,40.0,30.3,30.15,West,278,0.0,4.0,68,0.00,,---,0.00,VWS V14.01,2013-02-04 15:00:00,
2013-02-04 10:02:00,35.1,30.2,30.16,West,277,1.0,5.0,82,0.00,,---,0.00,VWS V14.01,2013-02-04 15:02:00,
2013-02-04 10:07:00,35.6,30.4,30.15,West,278,2.0,3.0,81,0.00,,---,0.00,VWS V14.01,2013-02-04 15:07:00,
2013-02-04 10:12:00,36.1,30.5,30.15,West,278,1.0,4.0,80,0.00,,---,0.00,VWS V14.01,2013-02-04 15:12:00,
2013-02-04 10:17:00,36.4,30.2,30.15,West,277,0.0,4.0,78,0.00,,---,0.00,VWS V14.01,2013-02-04 15:17:00,
2013-02-04 10:22:00,37.2,30.4,30.15,West,277,0.0,4.0,76,0.00,,---,0.00,VWS V14.01,2013-02-04 15:22:00,
2013-02-04 10:27:00,37.8,30.3,30.15,West,278,0.0,4.0,74,0.00,,---,0.00,VWS V14.01,2013-02-04 15:27:00,
2013-02-04 10:30:00,42.1,30.4,30.14,NW,321,5.0,8.0,63,0.00,,---,0.00,VWS V14.01,2013-02-04 15:30:00,
2013-02-04 10:32:00,38.3,30.1,30.15,West,278,0.0,4.0,72,0.00,,---,0.00,VWS V14.01,2013-02-04 15:32:00,
2013-02-04 10:37:00,38.8,30.6,30.15,West,277,1.0,2.0,72,0.00,,---,0.00,VWS V14.01,2013-02-04 15:37:00,
2013-02-04 10:42:00,39.0,30.8,30.15,West,277,2.0,4.0,72,0.00,,---,0.00,VWS V14.01,2013-02-04 15:42:00,
2013-02-04 10:47:00,38.9,30.0,30.14,West,278,0.0,4.0,70,0.00,,---,0.00,VWS V14.01,2013-02-04 15:47:00,
2013-02-04 10:52:00,39.0,29.7,30.14,West,277,4.0,4.0,69,0.00,,---,0.00,VWS V14.01,2013-02-04 15:52:00,
2013-02-04 10:57:00,39.3,29.3,30.14,West,278,3.0,4.0,67,0.00,,---,0.00,VWS V14.01,2013-02-04 15:57:00,
2013-02-04 11:00:00,44.2,29.1,30.14,NNE,28,0.0,10.0,55,0.00,,---,0.00,VWS V14.01,2013-02-04 16:00:00,
2013-02-04 11:02:00,39.8,30.5,30.14,West,278,0.0,4.0,69,0.00,,---,0.00,VWS V14.01,2013-02-04 16:02:00,
2013-02-04 11:07:00,40.5,30.8,30.15,West,278,0.0,2.0,68,0.00,,---,0.00,VWS V14.01,2013-02-04 16:07:00,
2013-02-04 11:12:00,41.1,30.6,30.15,West,278,0.0,3.0,66,0.00,,---,0.00,VWS V14.01,2013-02-04 16:12:00,
2013-02-04 11:17:00,41.3,29.7,30.15,West,277,1.0,4.0,63,0.00,,---,0.00,VWS V14.01,2013-02-04 16:17:00,
2013-02-04 11:22:00,41.6,30.0,30.15,West,277,3.0,4.0,63,0.00,,---,0.00,VWS V14.01,2013-02-04 16:22:00,
2013-02-04 11:27:00,42.0,30.7,30.14,West,277,3.0,4.0,64,0.00,,---,0.00,VWS V14.01,2013-02-04 16:27:00,
2013-02-04 11:30:00,46.2,29.1,30.13,NNE,28,0.0,3.0,51,0.00,,---,0.00,VWS V14.01,2013-02-04 16:30:00,
2013-02-04 11:32:00,42.1,30.8,30.14,West,279,4.0,6.0,64,0.00,,---,0.00,VWS V14.01,2013-02-04 16:32:00,
2013-02-04 11:37:00,42.2,30.5,30.13,NW,325,4.0,5.0,63,0.00,,---,0.00,VWS V14.01,2013-02-04 16:37:00,
2013-02-04 11:42:00,42.2,29.7,30.12,NNE,26,6.0,10.0,61,0.00,,---,0.00,VWS V14.01,2013-02-04 16:42:00,
2013-02-04 11:47:00,42.8,30.3,30.12,NNE,28,3.0,10.0,61,0.00,,---,0.00,VWS V14.01,2013-02-04 16:47:00,
2013-02-04 11:48:00,43.4,29.6,30.13,NNE,28,0.0,10.0,58,0.00,,---,0.00,VWS V14.01,2013-02-04 16:48:00,
2013-02-04 11:52:00,43.4,29.6,30.14,NNE,28,1.0,10.0,58,0.00,,---,0.00,VWS V14.01,2013-02-04 16:52:00,
2013-02-04 12:00:00,47.2,30.0,30.12,NNE,28,3.0,4.0,51,0.00,,---,0.00,VWS V14.01,2013-02-04 17:00:00,
2013-02-04 12:01:00,43.4,29.6,30.13,NNE,28,0.0,10.0,58,0.00,,---,0.00,VWS V14.01,2013-02-04 17:01:00,
2013-02-04 12:06:00,44.4,29.7,30.14,NNE,28,0.0,0.0,56,0.00,,---,0.00,VWS V14.01,2013-02-04 17:06:00,
2013-02-04 12:11:00,45.0,30.3,30.15,NNE,28,0.0,2.0,56,0.00,,---,0.00,VWS V14.01,2013-02-04 17:11:00,
2013-02-04 12:16:00,45.4,29.7,30.15,NNE,28,1.0,3.0,54,0.00,,---,0.00,VWS V14.01,2013-02-04 17:16:00,
2013-02-04 12:21:00,45.8,29.7,30.14,NNE,28,0.0,3.0,53,0.00,,---,0.00,VWS V14.01,2013-02-04 17:21:00,
2013-02-04 12:26:00,46.2,30.0,30.14,NNE,28,0.0,3.0,53,0.00,,---,0.00,VWS V14.01,2013-02-04 17:26:00,
2013-02-04 12:30:00,47.0,30.3,30.10,NNE,28,1.0,5.0,52,0.00,,---,0.00,VWS V14.01,2013-02-04 17:30:00,
2013-02-04 12:31:00,46.4,30.2,30.13,NNE,28,1.0,3.0,53,0.00,,---,0.00,VWS V14.01,2013-02-04 17:31:00,
2013-02-04 12:36:00,46.1,29.5,30.13,NNE,28,3.0,4.0,52,0.00,,---,0.00,VWS V14.01,2013-02-04 17:36:00,
2013-02-04 12:41:00,46.1,29.9,30.13,NNE,28,2.0,4.0,53,0.00,,---,0.00,VWS V14.01,2013-02-04 17:41:00,
2013-02-04 12:46:00,46.2,29.6,30.13,NNE,28,0.0,4.0,52,0.00,,---,0.00,VWS V14.01,2013-02-04 17:46:00,
2013-02-04 12:51:00,46.5,29.8,30.12,NNE,28,0.0,4.0,52,0.00,,---,0.00,VWS V14.01,2013-02-04 17:51:00,
2013-02-04 12:56:00,46.9,30.2,30.12,NNE,28,0.0,4.0,52,0.00,,---,0.00,VWS V14.01,2013-02-04 17:56:00,
2013-02-04 13:00:00,47.7,28.5,30.09,NNE,29,4.0,5.0,47,0.00,,---,0.00,VWS V14.01,2013-02-04 18:00:00,
2013-02-04 13:01:00,47.1,29.9,30.12,NNE,28,0.0,4.0,51,0.00,,---,0.00,VWS V14.01,2013-02-04 18:01:00,
2013-02-04 13:06:00,47.1,28.9,30.11,NNE,28,2.0,5.0,49,0.00,,---,0.00,VWS V14.01,2013-02-04 18:06:00,
2013-02-04 13:11:00,46.9,29.2,30.11,NNE,28,2.0,5.0,50,0.00,,---,0.00,VWS V14.01,2013-02-04 18:11:00,
2013-02-04 13:16:00,46.9,28.2,30.11,NNE,28,3.0,5.0,48,0.00,,---,0.00,VWS V14.01,2013-02-04 18:16:00,
2013-02-04 13:21:00,46.9,29.2,30.10,NNE,28,3.0,5.0,50,0.00,,---,0.00,VWS V14.01,2013-02-04 18:21:00,
2013-02-04 13:26:00,46.8,29.2,30.10,NNE,28,0.0,5.0,50,0.00,,---,0.00,VWS V14.01,2013-02-04 18:26:00,
2013-02-04 13:30:00,47.7,28.0,30.09,NNE,29,1.0,6.0,46,0.00,,---,0.00,VWS V14.01,2013-02-04 18:30:00,
2013-02-04 13:31:00,46.9,29.2,30.10,NNE,28,1.0,5.0,50,0.00,,---,0.00,VWS V14.01,2013-02-04 18:31:00,
2013-02-04 13:36:00,47.2,29.0,30.10,NNE,28,0.0,3.0,49,0.00,,---,0.00,VWS V14.01,2013-02-04 18:36:00,
2013-02-04 13:41:00,47.3,29.1,30.10,NNE,28,0.0,3.0,49,0.00,,---,0.00,VWS V14.01,2013-02-04 18:41:00,
2013-02-04 13:46:00,47.4,29.7,30.10,NNE,28,1.0,3.0,50,0.00,,---,0.00,VWS V14.01,2013-02-04 18:46:00,
2013-02-04 13:51:00,47.6,29.9,30.09,NNE,28,2.0,3.0,50,0.00,,---,0.00,VWS V14.01,2013-02-04 18:51:00,
2013-02-04 13:56:00,47.7,29.5,30.09,NNE,28,1.0,3.0,49,0.00,,---,0.00,VWS V14.01,2013-02-04 18:56:00,
2013-02-04 14:00:00,47.8,30.6,30.07,NNE,27,4.0,6.0,51,0.00,,---,0.00,VWS V14.01,2013-02-04 19:00:00,
2013-02-04 14:01:00,47.6,28.9,30.09,NNE,28,2.0,4.0,48,0.00,,---,0.00,VWS V14.01,2013-02-04 19:01:00,
2013-02-04 14:06:00,47.5,29.3,30.09,NNE,30,2.0,5.0,49,0.00,,---,0.00,VWS V14.01,2013-02-04 19:06:00,
2013-02-04 14:11:00,47.4,28.7,30.08,NNE,30,2.0,6.0,48,0.00,,---,0.00,VWS V14.01,2013-02-04 19:11:00,
2013-02-04 14:16:00,47.7,29.5,30.08,NNE,30,1.0,6.0,49,0.00,,---,0.00,VWS V14.01,2013-02-04 19:16:00,
2013-02-04 14:21:00,47.6,27.3,30.07,NNE,30,0.0,6.0,45,0.00,,---,0.00,VWS V14.01,2013-02-04 19:21:00,
2013-02-04 14:26:00,47.5,27.2,30.07,NNE,29,2.0,6.0,45,0.00,,---,0.00,VWS V14.01,2013-02-04 19:26:00,
2013-02-04 14:30:00,48.4,30.6,30.07,WSW,257,2.0,6.0,50,0.00,,---,0.00,VWS V14.01,2013-02-04 19:30:00,
2013-02-04 14:31:00,47.5,27.2,30.08,NNE,30,0.0,6.0,45,0.00,,---,0.00,VWS V14.01,2013-02-04 19:31:00,
2013-02-04 14:36:00,47.7,27.4,30.08,NNE,29,0.0,1.0,45,0.00,,---,0.00,VWS V14.01,2013-02-04 19:36:00,
2013-02-04 14:41:00,48.0,28.8,30.08,NNE,30,1.0,3.0,47,0.00,,---,0.00,VWS V14.01,2013-02-04 19:41:00,
2013-02-04 14:46:00,48.2,30.5,30.08,NNE,30,0.0,4.0,50,0.00,,---,0.00,VWS V14.01,2013-02-04 19:46:00,
2013-02-04 14:51:00,48.1,30.4,30.07,NNE,30,4.0,4.0,50,0.00,,---,0.00,VWS V14.01,2013-02-04 19:51:00,
2013-02-04 14:56:00,47.9,30.7,30.07,NNE,28,4.0,5.0,51,0.00,,---,0.00,VWS V14.01,2013-02-04 19:56:00,
2013-02-04 15:00:00,48.3,31.0,30.06,SW,234,2.0,7.0,51,0.00,,---,0.00,VWS V14.01,2013-02-04 20:00:00,
2013-02-04 15:01:00,47.9,30.2,30.07,NNE,27,2.0,6.0,50,0.00,,---,0.00,VWS V14.01,2013-02-04 20:01:00,
2013-02-04 15:06:00,47.8,30.6,30.07,NNE,28,3.0,4.0,51,0.00,,---,0.00,VWS V14.01,2013-02-04 20:06:00,
2013-02-04 15:11:00,47.7,30.0,30.07,NNE,28,4.0,5.0,50,0.00,,---,0.00,VWS V14.01,2013-02-04 20:11:00,
2013-02-04 15:16:00,47.7,30.5,30.07,NNE,28,3.0,5.0,51,0.00,,---,0.00,VWS V14.01,2013-02-04 20:16:00,
2013-02-04 15:21:00,47.8,31.0,30.07,NNE,28,1.0,5.0,52,0.00,,---,0.00,VWS V14.01,2013-02-04 20:21:00,
2013-02-04 15:26:00,48.1,30.8,30.07,NNE,28,3.0,5.0,51,0.00,,---,0.00,VWS V14.01,2013-02-04 20:26:00,
2013-02-04 15:30:00,48.7,31.4,30.06,SW,234,0.0,3.0,51,0.00,,---,0.00,VWS V14.01,2013-02-04 20:30:00,
2013-02-04 15:31:00,48.3,30.5,30.07,West,259,2.0,6.0,50,0.00,,---,0.00,VWS V14.01,2013-02-04 20:31:00,
2013-02-04 15:36:00,48.4,31.1,30.07,SW,234,4.0,7.0,51,0.00,,---,0.00,VWS V14.01,2013-02-04 20:36:00,
2013-02-04 15:41:00,48.1,30.8,30.07,SW,234,2.0,7.0,51,0.00,,---,0.00,VWS V14.01,2013-02-04 20:41:00,
2013-02-04 15:46:00,48.2,31.4,30.07,SW,234,2.0,7.0,52,0.00,,---,0.00,VWS V14.01,2013-02-04 20:46:00,
2013-02-04 15:51:00,48.4,31.1,30.07,SW,234,1.0,7.0,51,0.00,,---,0.00,VWS V14.01,2013-02-04 20:51:00,
2013-02-04 15:56:00,48.3,31.0,30.06,SW,234,0.0,7.0,51,0.00,,---,0.00,VWS V14.01,2013-02-04 20:56:00,
2013-02-04 16:00:00,48.4,31.1,30.06,SW,234,0.0,2.0,51,0.00,,---,0.00,VWS V14.01,2013-02-04 21:00:00,
2013-02-04 16:01:00,48.4,31.1,30.06,SW,234,1.0,7.0,51,0.00,,---,0.00,VWS V14.01,2013-02-04 21:01:00,
2013-02-04 16:06:00,48.2,30.9,30.06,SW,234,0.0,2.0,51,0.00,,---,0.00,VWS V14.01,2013-02-04 21:06:00,
2013-02-04 16:11:00,48.2,30.9,30.06,SW,234,1.0,3.0,51,0.00,,---,0.00,VWS V14.01,2013-02-04 21:11:00,
2013-02-04 16:16:00,48.2,30.5,30.06,SW,234,0.0,3.0,50,0.00,,---,0.00,VWS V14.01,2013-02-04 21:16:00,
2013-02-04 16:21:00,48.3,31.0,30.06,SW,234,2.0,3.0,51,0.00,,---,0.00,VWS V14.01,2013-02-04 21:21:00,
2013-02-04 16:26:00,48.4,31.1,30.06,SW,234,0.0,3.0,51,0.00,,---,0.00,VWS V14.01,2013-02-04 21:26:00,
2013-02-04 16:30:00,48.0,31.2,30.06,SW,234,0.0,2.0,52,0.00,,---,0.00,VWS V14.01,2013-02-04 21:30:00,
2013-02-04 16:31:00,48.6,31.3,30.06,SW,234,0.0,3.0,51,0.00,,---,0.00,VWS V14.01,2013-02-04 21:31:00,
2013-02-04 16:36:00,48.7,31.4,30.06,SW,234,0.0,1.0,51,0.00,,---,0.00,VWS V14.01,2013-02-04 21:36:00,
2013-02-04 16:41:00,48.8,31.5,30.07,SW,234,0.0,1.0,51,0.00,,---,0.00,VWS V14.01,2013-02-04 21:41:00,
2013-02-04 16:46:00,48.6,31.3,30.07,SW,234,0.0,1.0,51,0.00,,---,0.00,VWS V14.01,2013-02-04 21:46:00,
2013-02-04 16:51:00,48.4,31.1,30.06,SW,234,1.0,2.0,51,0.00,,---,0.00,VWS V14.01,2013-02-04 21:51:00,
2013-02-04 16:56:00,48.4,31.1,30.06,SW,234,0.0,2.0,51,0.00,,---,0.00,VWS V14.01,2013-02-04 21:56:00,
2013-02-04 17:01:00,48.4,31.6,30.06,SW,234,0.0,2.0,52,0.00,,---,0.00,VWS V14.01,2013-02-04 22:01:00,
2013-02-04 17:06:00,48.3,31.5,30.06,SW,234,0.0,1.0,52,0.00,,---,0.00,VWS V14.01,2013-02-04 22:06:00,
2013-02-04 17:11:00,48.2,31.4,30.06,SW,234,1.0,1.0,52,0.00,,---,0.00,VWS V14.01,2013-02-04 22:11:00,
2013-02-04 17:16:00,48.2,31.4,30.06,SW,234,1.0,2.0,52,0.00,,---,0.00,VWS V14.01,2013-02-04 22:16:00,
2013-02-04 17:21:00,48.1,30.8,30.06,SW,234,0.0,2.0,51,0.00,,---,0.00,VWS V14.01,2013-02-04 22:21:00,
2013-02-04 17:26:00,48.1,30.8,30.05,SW,234,0.0,2.0,51,0.00,,---,0.00,VWS V14.01,2013-02-04 22:26:00,
2013-02-04 17:30:00,44.5,34.6,30.07,SW,234,0.0,2.0,68,0.00,,---,0.00,VWS V14.01,2013-02-04 22:30:00,
2013-02-04 17:31:00,48.0,31.2,30.06,SW,234,0.0,2.0,52,0.00,,---,0.00,VWS V14.01,2013-02-04 22:31:00,
2013-02-04 17:36:00,48.0,31.2,30.06,SW,234,0.0,0.0,52,0.00,,---,0.00,VWS V14.01,2013-02-04 22:36:00,
2013-02-04 17:41:00,47.9,32.1,30.06,SW,234,0.0,0.0,54,0.00,,---,0.00,VWS V14.01,2013-02-04 22:41:00,
2013-02-04 17:46:00,47.6,31.8,30.06,SW,234,0.0,0.0,54,0.00,,---,0.00,VWS V14.01,2013-02-04 22:46:00,
2013-02-04 17:50:00,47.1,33.1,30.06,SW,234,1.0,2.0,58,0.00,,---,0.00,VWS V14.01,2013-02-04 22:50:00,
2013-02-04 17:51:00,47.3,32.4,30.06,SW,234,2.0,2.0,56,0.00,,---,0.00,VWS V14.01,2013-02-04 22:51:00,
2013-02-04 18:00:00,42.1,33.4,30.06,SW,234,0.0,2.0,71,0.00,,---,0.00,VWS V14.01,2013-02-04 23:00:00,
2013-02-04 18:12:00,47.1,33.1,30.06,SW,234,1.0,2.0,58,0.00,,---,0.00,VWS V14.01,2013-02-04 23:12:00,
2013-02-04 18:17:00,45.8,34.3,30.06,SW,234,0.0,2.0,64,0.00,,---,0.00,VWS V14.01,2013-02-04 23:17:00,
2013-02-04 18:22:00,45.3,33.9,30.07,SW,234,0.0,2.0,64,0.00,,---,0.00,VWS V14.01,2013-02-04 23:22:00,
2013-02-04 18:27:00,45.0,34.3,30.07,SW,234,0.0,2.0,66,0.00,,---,0.00,VWS V14.01,2013-02-04 23:27:00,
2013-02-04 18:32:00,44.6,34.3,30.07,SW,234,0.0,2.0,67,0.00,,---,0.00,VWS V14.01,2013-02-04 23:32:00,
2013-02-04 18:37:00,44.1,35.3,30.07,SW,234,2.0,2.0,71,0.00,,---,0.00,VWS V14.01,2013-02-04 23:37:00,
2013-02-04 18:42:00,43.7,34.9,30.07,SW,234,0.0,2.0,71,0.00,,---,0.00,VWS V14.01,2013-02-04 23:42:00,
2013-02-04 18:47:00,43.4,34.6,30.07,SW,234,0.0,2.0,71,0.00,,---,0.00,VWS V14.01,2013-02-04 23:47:00,
2013-02-04 18:52:00,42.9,34.2,30.06,SW,234,1.0,2.0,71,0.00,,---,0.00,VWS V14.01,2013-02-04 23:52:00,
2013-02-04 18:57:00,42.5,33.8,30.06,SW,234,2.0,2.0,71,0.00,,---,0.00,VWS V14.01,2013-02-04 23:57:00,
2013-02-04 19:02:00,42.1,33.0,30.06,SW,234,0.0,2.0,70,0.00,,---,0.00,VWS V14.01,2013-02-05 00:02:00,
2013-02-04 19:07:00,41.9,33.2,30.07,SW,234,0.0,0.0,71,0.00,,---,0.00,VWS V14.01,2013-02-05 00:07:00,
2013-02-04 19:12:00,41.7,33.7,30.07,SW,234,0.0,0.0,73,0.00,,---,0.00,VWS V14.01,2013-02-05 00:12:00,
2013-02-04 19:17:00,41.2,32.9,30.07,SW,234,0.0,1.0,72,0.00,,---,0.00,VWS V14.01,2013-02-05 00:17:00,
2013-02-04 19:22:00,40.8,32.8,30.08,SW,234,0.0,1.0,73,0.00,,---,0.00,VWS V14.01,2013-02-05 00:22:00,
2013-02-04 19:30:00,39.4,33.8,30.08,SW,234,0.0,1.0,80,0.00,,---,0.00,VWS V14.01,2013-02-05 00:30:00,
2013-02-04 20:16:00,40.7,32.7,30.08,SW,234,0.0,1.0,73,0.00,,---,0.00,VWS V14.01,2013-02-05 01:16:00,
2013-02-04 20:21:00,39.5,33.8,30.08,SW,234,0.0,1.0,80,0.00,,---,0.00,VWS V14.01,2013-02-05 01:21:00,
2013-02-04 20:26:00,39.5,33.8,30.08,SW,234,0.0,1.0,80,0.00,,---,0.00,VWS V14.01,2013-02-05 01:26:00,
2013-02-04 20:30:00,39.3,33.3,30.07,SW,234,0.0,2.0,79,0.00,,---,0.00,VWS V14.01,2013-02-05 01:30:00,
2013-02-04 20:31:00,39.4,33.8,30.08,SW,234,0.0,1.0,80,0.00,,---,0.00,VWS V14.01,2013-02-05 01:31:00,
2013-02-04 20:36:00,39.4,33.4,30.08,SW,234,0.0,1.0,79,0.00,,---,0.00,VWS V14.01,2013-02-05 01:36:00,
2013-02-04 20:41:00,39.4,33.4,30.08,SW,234,0.0,2.0,79,0.00,,---,0.00,VWS V14.01,2013-02-05 01:41:00,
2013-02-04 20:43:00,39.5,33.2,30.08,SW,234,0.0,2.0,78,0.00,,---,0.00,VWS V14.01,2013-02-05 01:43:00,
2013-02-04 20:46:00,39.5,33.2,30.08,SW,234,0.0,2.0,78,0.00,,---,0.00,VWS V14.01,2013-02-05 01:46:00,
2013-02-04 21:00:00,38.9,33.9,30.07,SW,234,0.0,0.0,82,0.00,,---,0.00,VWS V14.01,2013-02-05 02:00:00,
2013-02-04 21:07:00,39.5,33.2,30.08,SW,234,0.0,2.0,78,0.00,,---,0.00,VWS V14.01,2013-02-05 02:07:00,
2013-02-04 21:12:00,39.5,32.9,30.08,SW,234,0.0,2.0,77,0.00,,---,0.00,VWS V14.01,2013-02-05 02:12:00,
2013-02-04 21:17:00,39.5,33.2,30.08,SW,234,0.0,2.0,78,0.00,,---,0.00,VWS V14.01,2013-02-05 02:17:00,
2013-02-04 21:22:00,39.5,33.2,30.08,SW,234,0.0,2.0,78,0.00,,---,0.00,VWS V14.01,2013-02-05 02:22:00,
2013-02-04 21:28:00,39.4,33.1,30.08,SW,234,0.0,2.0,78,0.00,,---,0.00,VWS V14.01,2013-02-05 02:28:00,
2013-02-04 21:30:00,38.9,34.2,30.07,SW,234,0.0,1.0,83,0.00,,---,0.00,VWS V14.01,2013-02-05 02:30:00,
2013-02-04 21:33:00,39.4,33.4,30.08,SW,234,0.0,2.0,79,0.00,,---,0.00,VWS V14.01,2013-02-05 02:33:00,
2013-02-04 21:38:00,39.3,33.3,30.07,SW,234,0.0,0.0,79,0.00,,---,0.00,VWS V14.01,2013-02-05 02:38:00,
2013-02-04 21:43:00,39.2,33.6,30.08,SW,234,0.0,0.0,80,0.00,,---,0.00,VWS V14.01,2013-02-05 02:43:00,
2013-02-04 21:48:00,39.2,33.9,30.08,SW,234,0.0,0.0,81,0.00,,---,0.00,VWS V14.01,2013-02-05 02:48:00,
2013-02-04 21:53:00,39.1,33.8,30.08,SW,234,0.0,0.0,81,0.00,,---,0.00,VWS V14.01,2013-02-05 02:53:00,
2013-02-04 21:58:00,39.0,34.0,30.08,SW,234,0.0,0.0,82,0.00,,---,0.00,VWS V14.01,2013-02-05 02:58:00,
2013-02-04 22:00:00,38.9,33.9,30.07,SW,234,0.0,1.0,82,0.00,,---,0.00,VWS V14.01,2013-02-05 03:00:00,
2013-02-04 22:03:00,38.9,33.9,30.07,SW,234,0.0,0.0,82,0.00,,---,0.00,VWS V14.01,2013-02-05 03:03:00,
2013-02-04 22:08:00,38.9,33.9,30.07,SW,234,0.0,0.0,82,0.00,,---,0.00,VWS V14.01,2013-02-05 03:08:00,
2013-02-04 22:13:00,38.9,33.9,30.08,SW,234,0.0,0.0,82,0.00,,---,0.00,VWS V14.01,2013-02-05 03:13:00,
2013-02-04 22:18:00,38.9,34.2,30.08,SW,234,0.0,0.0,83,0.00,,---,0.00,VWS V14.01,2013-02-05 03:18:00,
2013-02-04 22:23:00,38.9,34.2,30.08,SW,234,0.0,0.0,83,0.00,,---,0.00,VWS V14.01,2013-02-05 03:23:00,
2013-02-04 22:28:00,38.9,34.2,30.08,SW,234,0.0,0.0,83,0.00,,---,0.00,VWS V14.01,2013-02-05 03:28:00,
2013-02-04 22:30:00,38.4,34.0,30.06,SW,234,0.0,1.0,84,0.00,,---,0.00,VWS V14.01,2013-02-05 03:30:00,
2013-02-04 22:33:00,38.8,34.1,30.07,SW,234,0.0,0.0,83,0.00,,---,0.00,VWS V14.01,2013-02-05 03:33:00,
2013-02-04 22:38:00,38.9,34.2,30.07,SW,234,0.0,1.0,83,0.00,,---,0.00,VWS V14.01,2013-02-05 03:38:00,
2013-02-04 22:43:00,39.1,34.4,30.07,SW,234,0.0,1.0,83,0.00,,---,0.00,VWS V14.01,2013-02-05 03:43:00,
2013-02-04 22:48:00,39.2,34.8,30.07,SW,234,1.0,1.0,84,0.00,,---,0.00,VWS V14.01,2013-02-05 03:48:00,
2013-02-04 22:53:00,39.1,34.4,30.06,SW,234,0.0,1.0,83,0.00,,---,0.00,VWS V14.01,2013-02-05 03:53:00,
2013-02-04 22:58:00,39.0,34.0,30.06,SW,234,0.0,1.0,82,0.00,,---,0.00,VWS V14.01,2013-02-05 03:58:00,
2013-02-04 23:03:00,38.9,33.9,30.07,SW,234,0.0,1.0,82,0.00,,---,0.00,VWS V14.01,2013-02-05 04:03:00,
2013-02-04 23:08:00,38.8,33.8,30.06,SW,234,0.0,0.0,82,0.00,,---,0.00,VWS V14.01,2013-02-05 04:08:00,
2013-02-04 23:13:00,38.6,33.9,30.06,SW,234,0.0,1.0,83,0.00,,---,0.00,VWS V14.01,2013-02-05 04:13:00,
2013-02-04 23:18:00,38.5,33.8,30.06,SW,234,0.0,1.0,83,0.00,,---,0.00,VWS V14.01,2013-02-05 04:18:00,
2013-02-04 23:23:00,38.5,33.8,30.06,SW,234,0.0,1.0,83,0.00,,---,0.00,VWS V14.01,2013-02-05 04:23:00,
2013-02-04 23:28:00,38.4,33.7,30.06,SW,234,0.0,1.0,83,0.00,,---,0.00,VWS V14.01,2013-02-05 04:28:00,
2013-02-04 23:30:00,39.0,34.3,30.03,SW,234,0.0,1.0,83,0.00,,---,0.00,VWS V14.01,2013-02-05 04:30:00,
2013-02-04 23:33:00,38.4,33.7,30.06,SW,234,0.0,1.0,83,0.00,,---,0.00,VWS V14.01,2013-02-05 04:33:00,
2013-02-04 23:38:00,38.5,34.1,30.06,SW,234,0.0,0.0,84,0.00,,---,0.00,VWS V14.01,2013-02-05 04:38:00,